Location: Ferchesar
(52.6477°N, 12.4298°E)
Time: 20:08:15
(UTC+02:00)

A-11 Canister half - Pass Details

Date: 13 March 2021
Orbit: 1525 x 1683 km, 47.3° (Epoch: 11 April)

Event Time Altitude Azimuth Distance (km) Brightness Sun altitude
Exits shadow 02:30:18 47° 153° (SSE) 2,016 9.3 -33.4°
Drops below altitude 10° 02:39:11 10° 84° (E) 3,757 11.5 -32.5°
Sets 02:42:21 0° 79° (E) 4,724 12.3 -32.2°
